Temp
43 44 42 42 42 41 40 40 40 39 40 39 39 39 38 38 38 38 37 37 36 36 37 36 35 36 35 36 35 35 35 35 33 36 36 34 35 33 37 40 42 42 41
42 41 40 40 40 39 38 38 39 38 38 39 39 37 37 36 37 36 35 36 35 35 35 36 35 37 35 35 34 32 32 33 31 29 32 30 31 33 35 33 35 42 40
41 40 39 38 38 38 37 37 38 38 38 38 38 36 35 35 35 35 35 35 35 34 34 35 35 35 34 35 33 33 33 33 32 30 28 31 31 32 33 36 34 38 38
40 40 39 38 38 37 37 37 37 37 37 38 37 35 35 35 35 35 35 35 35 34 34 34 34 33 33 33 32 31 31 31 31 30 29 29 29 31 33 31 33 33 32
40 38 37 37 37 36 35 35 35 35 36 37 37 36 35 35 34 34 35 34 34 33 33 33 33 31 29 30 31 29 28 28 28 27 26 26 24 24 25 31 31 37 32
38 36 37 35 35 34 34 33 34 33 35 36 35 34 34 34 30 29 33 33 33 32 31 32 32 30 28 25 26 27 27 24 22 23 24 23 22 23 25 28 29 32 31
36 34 34 34 33 33 33 33 32 31 33 32 33 33 33 33 30 29 29 32 31 29 28 29 29 29 28 27 23 22 24 25 24 23 20 19 20 20 22 24 26 29 26
33 32 32 33 31 31 30 28 27 28 27 28 29 30 31 31 29 28 28 30 29 28 27 26 25 25 25 26 24 20 18 20 22 23 21 20 21 22 22 25 27 29 29
31 30 31 32 29 29 25 23 25 25 25 25 28 28 28 28 29 27 28 28 25 25 27 27 26 24 22 22 20 17 16 15 19 20 20 19 19 21 20 23 22 25 20
31 31 31 31 26 23 23 22 24 25 24 27 25 26 28 27 28 27 27 28 25 25 26 27 26 24 23 20 17 16 13 12 14 15 15 16 17 17 18 17 18 18 17
31 31 31 30 27 25 23 23 22 23 23 23 22 23 25 28 27 27 26 26 25 24 24 24 25 24 22 21 19 16 13 14 13 14 15 15 16 16 16 17 17 17 15
31 31 29 28 29 27 23 23 22 21 21 22 23 24 25 27 28 26 25 24 23 22 20 22 23 23 21 19 17 16 13 13 14 14 13 11 12 12 14 16 16 17 17
30 28 28 29 28 27 24 22 23 23 24 24 25 24 24 26 28 27 26 23 21 20 21 20 19 17 16 17 15 13 12 13 13 13 11 11 12 13 16 17 18 17 18
29 30 31 29 27 28 27 27 26 24 24 25 24 24 24 24 24 26 24 21 18 17 16 14 12 11 8 10 13 13 12 12 12 11 12 13 15 16 15 16 16 17 18
29 30 30 29 28 27 27 27 27 27 28 26 24 24 22 22 22 22 20 19 17 14 13 14 13 14 13 13 13 11 13 13 12 12 12 13 13 15 15 16 16 16 15
30 30 29 29 29 28 26 25 26 26 26 26 25 25 24 25 24 22 21 19 17 15 15 14 12 13 13 14 13 13 12 11 12 12 12 12 11 13 13 15 16 14 13
31 31 30 29 28 27 26 25 22 25 27 27 27 26 26 26 25 25 24 21 17 16 16 14 13 13 14 14 14 13 11 11 10 11 10 10 10 12 13 13 13 13 13
29 29 29 28 27 26 25 25 25 23 22 23 27 28 28 27 26 25 22 19 15 15 16 14 13 14 15 14 13 12 11 11 10 10 9 8 8 11 11 11 12 9 11
27 26 26 26 26 26 25 24 24 24 23 21 21 24 27 26 25 24 19 19 16 15 15 14 14 14 14 13 10 9 8 8 7 8 8 8 6 9 9 10 10 8 9
27 25 26 26 24 24 24 24 23 22 22 22 22 23 22 21 17 15 15 15 16 16 16 15 14 14 13 11 10 9 11 10 9 9 8 7 7 8 9 8 9 9 11
26 25 26 25 24 24 24 23 23 22 22 22 22 21 20 21 17 16 15 13 14 15 13 14 12 11 11 10 11 10 9 8 7 7 7 7 5 6 8 9 9 9 10
26 26 25 24 25 24 24 24 23 22 22 21 20 16 16 19 17 16 15 13 13 14 14 13 12 12 12 12 11 9 7 6 7 6 6 4 5 7 7 7 7 8 9
27 25 25 26 25 24 23 24 23 23 22 21 20 17 16 17 16 15 14 12 12 11 12 12 11 10 10 9 10 10 8 8 6 4 2 3 5 6 5 6 6 6 6
27 26 26 25 24 24 24 23 23 22 22 20 19 18 17 16 15 14 13 11 10 9 8 8 9 8 8 7 8 8 8 6 6 4 -1 2 3 4 4 4 5 4 4
27 26 25 24 23 23 22 22 21 20 20 19 18 18 17 16 14 13 11 9 7 6 5 5 6 6 4 2 3 4 0 -3 0 -3 2 1 2 1 2 2 2 3 4
25 25 25 24 23 22 22 21 20 20 19 18 18 17 16 15 14 12 10 7 6 5 5 5 5 3 3 4 4 2 -1 -2 -1 -5 -0 2 1 2 3 2 1 2 3
MSLP
1020.88 1021.31 1022.10 1022.86 1023.77 1024.28 1024.78 1025.20 1025.44 1025.39 1025.61 1025.65 1025.83 1025.84 1026.24 1026.08 1026.18 1026.13 1026.32 1026.63 1026.81 1026.59 1026.82 1026.32 1026.26 1025.84 1025.63 1025.52 1025.41 1025.04 1024.38 1023.97 1023.01 1022.41 1022.65 1023.09 1022.91 1022.88 1021.99 1021.11 1020.04 1019.57 1019.62
1020.63 1021.21 1022.03 1022.91 1023.51 1024.08 1024.78 1025.16 1025.48 1025.36 1025.64 1025.82 1026.05 1026.03 1026.60 1026.45 1026.79 1026.62 1027.04 1027.11 1027.26 1027.18 1026.96 1026.50 1026.58 1026.16 1026.04 1026.01 1025.85 1025.60 1025.18 1024.65 1024.25 1023.68 1023.73 1023.85 1023.84 1023.68 1022.83 1022.14 1021.14 1020.15 1020.27
1020.51 1021.06 1021.93 1022.66 1023.35 1024.09 1024.81 1025.11 1025.60 1025.66 1025.72 1025.99 1025.82 1026.20 1026.46 1026.78 1026.77 1027.11 1027.52 1027.58 1027.69 1027.99 1027.53 1027.14 1027.04 1026.86 1026.55 1026.50 1026.38 1026.07 1025.74 1025.39 1025.02 1024.66 1024.43 1024.23 1024.17 1023.99 1022.99 1022.22 1021.60 1020.83 1020.76
1020.10 1020.93 1021.51 1022.63 1023.37 1024.35 1024.78 1025.09 1025.51 1025.81 1026.10 1026.15 1026.09 1026.36 1026.46 1026.90 1027.18 1027.11 1027.76 1028.37 1028.39 1028.42 1028.25 1027.76 1027.67 1027.66 1027.40 1027.03 1026.94 1026.87 1026.50 1026.02 1025.49 1025.26 1024.92 1024.73 1024.76 1024.28 1023.69 1022.76 1021.66 1021.43 1021.36
1019.67 1020.52 1021.42 1022.58 1023.82 1024.41 1024.84 1025.47 1025.83 1026.02 1026.13 1026.04 1026.43 1026.24 1026.36 1026.93 1027.47 1027.86 1027.98 1028.70 1028.71 1028.80 1028.70 1028.31 1028.54 1028.89 1028.67 1028.16 1027.71 1027.62 1027.37 1026.87 1026.44 1026.16 1025.76 1025.60 1025.64 1025.01 1024.29 1023.43 1022.48 1021.33 1021.98
1019.48 1020.76 1021.70 1022.58 1023.67 1024.51 1024.94 1025.32 1026.31 1026.93 1026.41 1026.23 1026.59 1026.55 1026.96 1027.92 1028.70 1028.48 1028.84 1028.99 1029.04 1029.33 1028.88 1028.71 1029.06 1029.40 1029.27 1029.40 1029.21 1028.70 1028.51 1028.05 1027.45 1026.82 1026.44 1026.20 1026.24 1026.26 1025.69 1024.68 1023.51 1022.05 1021.97
1019.49 1020.70 1021.97 1022.94 1023.78 1024.59 1025.18 1025.76 1026.56 1026.84 1026.65 1026.70 1026.90 1027.37 1027.35 1028.25 1028.94 1029.18 1029.64 1029.57 1029.65 1030.09 1029.67 1029.41 1029.65 1029.95 1029.54 1029.60 1030.09 1030.02 1029.44 1029.05 1028.69 1028.36 1028.29 1028.33 1028.02 1027.64 1026.86 1025.41 1024.43 1023.73 1024.31
1019.62 1020.73 1021.99 1023.12 1024.15 1024.89 1025.88 1026.28 1027.21 1027.37 1027.39 1027.50 1027.48 1028.00 1028.35 1029.18 1029.51 1029.90 1030.26 1030.20 1030.17 1030.57 1030.30 1030.33 1030.65 1030.70 1030.43 1030.06 1030.32 1030.60 1030.70 1030.37 1029.74 1029.51 1029.58 1029.56 1029.08 1028.49 1027.60 1026.38 1025.26 1024.72 1024.92
1019.57 1020.83 1021.94 1022.96 1023.97 1024.96 1026.08 1026.80 1027.58 1027.65 1027.78 1027.88 1028.14 1028.26 1028.32 1029.18 1030.12 1030.31 1030.43 1030.60 1030.91 1030.87 1030.78 1030.99 1031.04 1031.45 1031.40 1031.20 1031.15 1031.27 1031.41 1031.58 1031.37 1031.03 1030.81 1030.62 1030.22 1029.41 1028.80 1027.36 1026.27 1025.50 1025.62
1019.50 1020.58 1021.69 1022.64 1024.16 1025.29 1026.32 1027.44 1028.10 1028.34 1028.50 1028.76 1029.18 1029.24 1029.56 1029.46 1030.02 1030.71 1030.81 1030.68 1031.07 1031.15 1031.37 1031.36 1031.47 1031.71 1031.81 1031.94 1031.97 1031.99 1032.11 1032.40 1032.12 1031.88 1031.59 1031.11 1030.74 1030.29 1029.75 1029.36 1028.74 1027.64 1027.35
1019.21 1020.89 1021.84 1023.09 1024.51 1025.50 1026.70 1027.32 1028.06 1028.52 1029.17 1029.33 1029.62 1029.76 1029.69 1030.26 1030.05 1030.82 1031.28 1031.13 1031.36 1031.61 1031.93 1032.06 1032.09 1032.23 1032.35 1032.38 1032.40 1032.61 1032.81 1032.94 1032.72 1032.32 1031.93 1031.53 1031.08 1030.77 1030.69 1030.49 1030.24 1029.80 1029.40
1019.79 1021.36 1022.16 1023.08 1024.41 1025.32 1026.48 1027.46 1028.23 1028.76 1029.75 1029.70 1029.47 1030.14 1030.82 1030.40 1030.48 1031.12 1031.89 1031.77 1032.09 1032.21 1032.72 1032.95 1032.84 1032.87 1033.01 1033.11 1033.14 1033.42 1033.57 1033.31 1033.01 1032.85 1032.58 1032.48 1032.35 1032.28 1031.95 1031.43 1031.22 1030.99 1030.87
1019.80 1021.64 1022.41 1023.24 1024.49 1025.45 1026.45 1027.28 1028.08 1029.22 1029.36 1029.20 1029.21 1029.83 1030.53 1030.78 1030.88 1031.38 1032.00 1032.37 1032.81 1032.98 1033.25 1033.65 1033.93 1034.11 1034.30 1034.06 1034.22 1034.31 1034.19 1033.77 1033.54 1033.23 1033.21 1033.33 1033.37 1033.08 1032.43 1031.84 1031.57 1031.53 1031.18
1020.06 1021.28 1021.89 1023.33 1024.64 1025.58 1026.30 1027.01 1028.01 1028.71 1028.96 1028.87 1028.96 1029.75 1030.28 1031.00 1031.63 1031.90 1032.36 1033.00 1033.60 1033.97 1034.43 1035.00 1035.20 1035.32 1035.49 1035.42 1034.90 1034.76 1034.72 1034.66 1034.38 1034.15 1034.01 1033.87 1033.56 1033.01 1032.69 1032.37 1031.89 1031.44 1030.93
1019.94 1021.14 1022.22 1023.45 1024.37 1025.30 1026.04 1027.05 1027.59 1028.30 1028.28 1028.43 1029.14 1029.54 1030.15 1030.98 1031.97 1032.37 1032.76 1033.22 1033.68 1034.41 1034.95 1035.13 1035.17 1035.02 1034.96 1035.04 1035.11 1035.14 1035.01 1034.84 1034.71 1034.67 1034.38 1034.05 1033.71 1033.28 1032.91 1032.64 1032.27 1031.73 1031.18
1019.86 1021.10 1022.27 1023.35 1024.33 1025.08 1026.01 1027.24 1028.03 1028.35 1028.61 1028.96 1029.51 1029.59 1030.46 1031.16 1032.00 1032.45 1032.82 1033.30 1033.89 1034.50 1034.69 1034.69 1034.84 1034.88 1034.92 1035.11 1035.16 1035.21 1035.31 1035.29 1035.27 1035.10 1034.94 1034.66 1034.30 1033.87 1033.40 1032.96 1032.62 1032.12 1031.56
1019.94 1021.08 1022.16 1023.30 1024.15 1024.90 1025.76 1026.57 1027.48 1028.49 1028.70 1029.25 1029.53 1029.78 1030.47 1030.98 1031.54 1031.84 1032.35 1033.12 1033.90 1034.26 1034.23 1034.55 1034.80 1035.01 1035.13 1035.24 1035.34 1035.48 1035.67 1036.01 1036.06 1035.72 1035.59 1035.40 1035.02 1034.40 1033.79 1033.36 1032.97 1032.55 1031.94
1020.43 1021.30 1022.17 1023.28 1024.03 1024.90 1025.66 1026.21 1027.01 1027.70 1028.57 1029.24 1029.50 1029.66 1030.04 1030.74 1031.25 1031.88 1032.77 1033.53 1034.08 1034.26 1034.28 1034.56 1034.89 1035.13 1035.25 1035.45 1035.79 1036.02 1036.20 1036.27 1036.19 1036.04 1035.95 1035.76 1035.46 1034.76 1034.24 1033.88 1033.53 1033.35 1032.66
1020.61 1021.53 1022.43 1023.32 1024.16 1024.99 1025.70 1026.32 1027.00 1027.83 1028.67 1029.38 1029.97 1030.09 1030.26 1030.84 1031.49 1032.05 1033.01 1033.39 1033.66 1033.97 1034.36 1034.67 1035.02 1035.28 1035.54 1035.85 1036.23 1036.46 1036.66 1036.89 1036.99 1036.57 1036.29 1036.09 1035.95 1035.42 1034.91 1034.55 1034.08 1033.85 1033.15
1021.00 1021.81 1022.64 1023.51 1024.44 1025.12 1025.75 1026.37 1027.15 1027.92 1028.66 1029.30 1029.61 1029.94 1030.63 1031.37 1032.12 1032.80 1033.30 1033.56 1033.72 1033.98 1034.32 1034.67 1035.15 1035.49 1035.72 1036.01 1036.46 1036.73 1036.68 1036.95 1036.91 1036.62 1036.50 1036.35 1036.16 1035.70 1035.11 1034.80 1034.37 1033.74 1033.01
1021.23 1022.20 1022.84 1023.66 1024.34 1025.01 1025.65 1026.30 1027.03 1027.77 1028.39 1028.99 1029.43 1030.13 1030.56 1030.99 1031.77 1032.46 1033.04 1033.55 1033.82 1034.12 1034.46 1034.70 1035.19 1035.71 1036.04 1036.22 1036.23 1036.46 1036.63 1036.77 1036.93 1036.88 1036.75 1036.54 1036.34 1035.82 1035.44 1034.95 1034.45 1033.90 1033.35
1021.36 1022.21 1023.01 1023.64 1024.33 1024.96 1025.53 1026.24 1026.89 1027.52 1028.11 1028.73 1029.46 1030.29 1030.75 1031.09 1031.64 1032.24 1032.85 1033.43 1033.92 1034.27 1034.62 1034.84 1035.15 1035.46 1035.75 1035.90 1036.15 1036.48 1036.62 1036.74 1036.85 1036.84 1036.70 1036.75 1036.26 1035.73 1035.46 1035.01 1034.49 1033.92 1033.27
1021.42 1022.25 1022.98 1023.61 1024.21 1024.92 1025.58 1026.08 1026.64 1027.22 1027.81 1028.46 1029.19 1029.92 1030.57 1030.95 1031.49 1032.03 1032.65 1033.42 1034.01 1034.42 1034.75 1034.95 1035.16 1035.55 1035.91 1036.30 1036.45 1036.47 1036.51 1036.53 1036.83 1037.09 1036.93 1036.58 1036.08 1035.74 1035.43 1034.95 1034.46 1033.90 1033.38
1021.46 1022.07 1022.74 1023.38 1024.03 1024.62 1025.21 1025.81 1026.36 1026.98 1027.51 1028.18 1028.81 1029.41 1030.06 1030.67 1031.27 1031.87 1032.55 1033.38 1033.96 1034.51 1034.96 1035.16 1035.26 1035.49 1035.82 1036.17 1036.35 1036.47 1036.54 1036.76 1036.88 1036.82 1037.09 1036.64 1036.10 1035.68 1035.38 1034.96 1034.42 1034.02 1033.56
1021.46 1022.03 1022.63 1023.18 1023.80 1024.35 1024.99 1025.57 1026.16 1026.77 1027.33 1027.85 1028.43 1029.09 1029.74 1030.42 1031.09 1031.74 1032.55 1033.34 1033.95 1034.44 1034.87 1035.26 1035.41 1035.54 1035.84 1036.08 1036.20 1036.30 1036.58 1036.87 1036.89 1036.99 1036.62 1036.38 1035.97 1035.86 1035.35 1034.91 1034.51 1033.99 1033.45
1021.61 1022.16 1022.70 1023.28 1023.80 1024.31 1024.77 1025.32 1025.89 1026.51 1027.06 1027.67 1028.25 1028.85 1029.49 1030.14 1030.79 1031.57 1032.40 1033.14 1033.72 1034.16 1034.46 1034.81 1035.06 1035.38 1035.52 1035.63 1035.83 1036.07 1036.43 1036.54 1036.49 1036.65 1036.44 1035.96 1035.64 1035.21 1034.86 1034.69 1034.37 1033.91 1033.27
Wind_Speed
14 13 13 12 11 9 8 7 7 7 7 8 7 9 8 9 8 8 8 8 8 8 7 8 8 8 6 6 6 6 6 6 6 4 6 10 11 13 11 10 8 9 9
14 14 13 12 11 11 9 8 7 8 8 8 8 9 9 10 8 9 9 8 9 9 8 9 10 6 8 8 6 8 7 6 6 7 5 8 9 12 10 8 7 8 10
14 14 13 13 12 11 10 8 7 8 8 9 9 9 9 9 10 10 9 9 8 8 8 9 10 10 9 8 8 7 7 6 6 5 5 6 7 9 9 8 7 7 10
15 15 14 13 11 10 10 9 8 8 8 8 10 10 10 10 9 10 8 7 7 7 8 9 11 11 11 10 9 9 8 6 6 6 6 7 9 11 8 9 6 5 9
15 14 14 13 12 11 10 9 8 8 8 8 9 10 10 9 7 7 8 6 6 7 8 9 10 13 16 16 9 11 9 7 6 6 7 7 9 9 12 10 7 3 5
14 14 14 13 12 11 10 10 9 8 8 9 9 10 11 8 12 13 7 7 8 7 7 9 8 9 12 16 16 20 17 10 11 9 10 11 14 12 10 9 9 7 4
14 13 13 12 12 11 10 10 9 8 9 10 11 10 11 11 13 13 10 8 9 9 10 9 9 7 9 9 13 14 17 19 18 11 10 11 11 12 11 11 11 7 7
14 14 13 13 11 11 10 10 8 8 9 10 11 10 11 9 13 13 11 9 10 11 11 11 10 10 11 8 9 11 11 13 14 10 11 10 12 13 12 10 10 4 4
15 13 14 14 13 12 10 10 9 9 9 9 10 11 11 10 12 12 10 9 9 10 9 11 11 11 14 12 9 9 10 10 11 16 15 16 16 20 18 8 11 8 5
13 14 14 14 13 11 12 10 7 8 9 9 9 8 12 10 13 11 8 6 8 8 9 10 15 12 15 14 9 7 8 8 8 9 9 11 13 14 19 14 10 11 8
15 15 14 14 14 14 12 10 10 9 8 9 8 7 8 8 11 11 10 6 6 6 6 6 8 14 15 15 14 9 8 5 8 7 8 8 10 11 10 10 11 9 9
14 14 14 16 12 12 13 10 10 9 9 9 10 8 4 6 13 13 11 11 10 7 6 5 7 14 15 15 12 14 12 7 6 6 7 8 8 8 9 9 9 7 8
16 14 14 15 14 13 13 11 9 8 8 9 8 8 6 5 7 15 14 14 13 8 6 9 12 12 11 13 15 13 9 6 6 7 7 7 6 6 7 8 7 6 4
17 16 15 15 14 13 9 9 8 8 8 7 8 8 7 7 6 6 7 8 10 8 9 6 8 9 9 6 6 8 7 7 7 6 6 5 5 6 7 7 7 7 4
16 14 14 12 13 12 10 9 8 7 7 8 8 8 8 7 5 8 9 6 6 7 7 5 4 3 4 5 5 6 6 6 6 6 6 6 7 7 7 7 7 7 7
15 12 11 11 11 10 10 8 7 9 10 11 12 9 5 11 15 14 14 13 13 10 4 4 4 4 4 4 4 5 5 6 6 6 6 6 6 7 7 7 7 8 8
14 14 11 11 10 10 10 10 10 8 13 13 14 13 14 14 17 14 13 13 10 6 4 4 4 4 3 4 4 5 5 5 4 4 5 5 5 5 7 7 8 9 8
12 15 10 10 9 9 9 9 9 10 10 9 11 11 15 17 14 14 13 11 6 5 4 4 4 3 3 3 4 4 4 4 4 4 5 5 5 6 6 7 7 9 8
12 9 9 9 9 9 9 9 9 10 9 8 6 7 11 13 11 11 11 3 4 4 4 4 3 3 3 3 3 3 3 4 3 3 4 4 5 5 5 6 6 8 9
10 14 11 9 9 9 9 9 9 9 10 9 8 9 7 9 6 4 3 4 4 4 4 4 4 3 3 3 3 2 2 2 3 3 3 4 4 4 5 5 6 7 8
8 9 11 9 9 9 9 9 9 9 9 8 8 8 12 8 6 5 5 4 4 4 4 4 4 4 3 3 3 2 2 3 3 3 3 3 3 4 5 5 6 6 7
8 9 8 8 8 9 9 8 9 9 9 8 6 7 10 5 5 5 5 5 4 4 4 4 4 4 3 2 2 2 1 1 2 3 3 3 4 4 5 5 6 6 7
9 9 8 8 8 10 9 8 8 8 8 8 8 8 7 6 5 5 5 5 5 4 4 4 4 3 3 2 2 2 1 1 3 3 4 4 4 5 5 6 6 7 7
9 9 9 8 8 9 9 8 8 9 8 8 8 8 7 7 6 6 5 6 5 4 4 3 3 4 4 3 3 3 2 1 3 3 4 4 4 5 5 6 6 8 8
8 8 9 9 9 8 8 8 8 8 7 7 7 7 7 6 6 6 6 5 5 4 5 4 3 5 6 5 4 5 1 3 4 4 4 5 5 7 5 6 7 8 8
7 7 7 6 7 7 7 7 7 7 7 6 6 7 7 7 6 6 6 6 5 5 5 4 5 6 5 5 5 5 4 4 4 3 4 5 5 5 5 7 9 8 8
Wind_Direction
152 144 142 138 139 132 125 122 111 108 104 98 96 88 75 71 67 72 71 60 51 46 35 34 27 25 18 12 -0 354 347 349 316 2 23 12 5 355 347 347 7 47 36
151 147 145 144 140 135 135 129 128 114 108 107 105 90 81 73 70 70 65 54 43 41 37 40 30 24 26 21 10 358 356 3 346 351 4 13 352 360 344 353 11 47 35
153 149 149 146 148 145 139 125 119 115 114 110 101 94 87 81 76 70 62 55 53 42 41 42 36 28 29 24 20 6 5 4 10 9 13 12 1 3 357 6 27 27 34
156 157 152 154 146 144 135 127 122 115 115 117 105 98 89 80 74 72 70 67 59 53 49 48 44 37 31 28 29 17 10 10 16 26 24 21 8 7 1 2 19 32 28
160 159 153 144 147 139 132 126 121 122 126 116 115 95 84 78 70 81 76 72 74 66 59 55 49 48 43 40 34 33 25 21 28 31 35 31 15 6 7 358 2 4 70
151 152 148 147 144 143 137 125 122 129 122 114 104 94 87 80 84 82 81 80 73 58 64 60 62 52 57 50 44 45 45 34 39 30 31 24 15 7 356 359 7 18 29
146 142 146 145 144 143 135 134 134 132 125 116 109 102 99 98 93 93 91 82 76 70 61 56 57 53 56 57 60 50 44 47 49 40 38 30 14 4 348 3 14 32 53
141 142 149 149 143 137 137 124 119 122 117 116 109 111 103 96 106 101 99 93 87 77 71 71 64 52 50 59 65 61 51 39 40 42 43 27 24 13 4 4 356 37 76
152 147 152 150 145 140 133 131 138 133 121 112 117 118 113 115 117 113 110 103 92 81 74 77 73 65 58 60 66 66 60 46 40 46 48 44 32 31 27 14 21 21 38
152 147 148 143 137 134 135 132 126 120 116 115 111 107 111 115 119 122 119 116 102 90 76 67 71 72 67 64 67 71 67 39 33 35 34 33 32 30 33 35 17 30 21
143 144 144 140 140 134 132 128 130 125 125 124 115 104 106 125 116 114 112 110 109 100 89 73 69 69 67 64 66 62 59 43 45 42 42 35 31 29 27 28 30 32 33
133 142 137 139 140 139 134 133 132 130 137 137 123 114 99 123 119 117 112 106 106 104 96 79 72 72 70 67 63 61 57 58 53 52 47 40 31 23 15 17 21 28 36
136 140 137 133 138 139 139 138 137 157 157 149 138 134 123 121 131 127 124 113 106 104 104 97 89 85 72 67 60 57 50 49 49 52 45 40 28 19 19 20 25 16 23
137 144 140 143 143 145 143 145 154 167 165 158 148 148 137 129 129 133 126 119 105 92 98 89 96 90 77 80 62 57 52 45 44 46 42 36 29 30 33 19 17 11 0
140 145 145 146 150 149 151 161 163 171 169 157 155 149 149 155 163 155 147 140 129 121 124 130 130 111 90 76 70 57 51 46 44 38 34 29 29 25 26 18 17 14 17
143 146 151 153 157 155 154 154 157 157 157 147 148 144 146 140 147 142 136 131 136 148 146 136 109 94 83 76 67 66 55 48 38 34 33 27 22 23 12 18 16 13 10
144 150 149 152 158 157 161 160 150 159 148 152 156 146 156 161 162 140 131 133 135 152 130 113 104 94 92 78 62 53 55 45 38 44 35 28 14 19 9 15 13 7 4
143 146 150 155 156 154 158 153 150 152 158 162 163 154 149 160 150 138 134 132 133 116 120 123 121 115 93 89 82 66 63 51 42 30 33 24 10 9 10 10 9 360 350
141 144 143 145 152 151 150 151 153 160 165 158 151 168 150 140 134 135 141 189 162 149 144 136 125 122 120 115 99 75 51 47 30 22 29 16 10 352 3 358 356 350 331
138 141 146 149 148 152 156 158 161 166 169 172 176 157 142 130 150 152 150 162 167 159 157 151 146 139 133 130 132 127 97 59 36 16 15 4 358 339 350 345 344 338 345
138 146 146 147 156 162 163 167 167 171 177 180 177 170 168 170 162 162 161 170 177 170 171 163 153 147 149 153 155 130 66 36 17 359 342 341 340 334 339 333 331 331 334
140 149 154 161 162 165 170 168 171 176 178 177 166 159 167 161 158 163 168 168 167 171 168 167 167 170 160 159 158 160 134 0 347 339 332 323 325 334 330 325 325 330 328
148 153 162 167 169 165 168 174 177 180 181 180 170 166 180 183 176 174 172 164 169 169 170 177 178 177 161 171 190 205 250 334 342 330 311 316 321 333 323 323 325 323 335
155 161 166 167 169 174 176 177 182 184 179 178 178 178 181 181 178 174 165 165 166 169 172 181 197 200 180 198 201 207 226 295 304 302 284 300 310 319 318 318 321 324 314
157 161 167 170 172 175 171 175 177 177 178 177 180 180 175 172 170 170 165 165 168 173 180 188 202 201 205 210 232 229 197 315 288 304 266 272 290 299 304 313 324 313 315
149 156 161 161 165 169 171 171 172 172 174 175 176 176 174 176 174 170 167 171 176 181 184 189 201 217 220 219 226 205 223 271 271 258 274 278 292 303 308 312 316 310 309